sat.trackr.live / text

‹ back to catalog

TIANQI-6

NORAD 46810 · 2020-076D

PAYLOAD ACTIVE UNKNOWN

§ Identity

Operator
Country
PRC
Launch date
2020-10-26
Launch site
XICLF
Launch vehicle
Mass (kg)
RCS (m²)

External: N2YO · Heavens-Above · Gunter

§ Orbital elements

Epoch: 2026-05-25T05:12:56.124864Z

Period
95.55 min
Inclination
34.9977°
Eccentricity
0.0010631
Mean motion
15.07006489 rev/d
Perigee alt
538.0 km
Apogee alt
552.7 km
Semi-major
6,923.5 km
B*
1.8434e-4
RAAN
189.4212°
Arg perigee
322.6497°
Mean anomaly
37.3473°
Rev number
30,511

§ Raw data

TIANQI-61 46810U 20076D   26145.21731626  .00002792  00000+0  18434-3 0  99922 46810  34.9977 189.4212 0010631 322.6497  37.3473 15.07006489305118

JSON: /api/v1/satellites/46810 · /tle

For live sub-satellite position, see the globe view (requires WebGL).

§ Visibility from observer

Set your observer location to see the next 7 days of passes ≥ 10°. The values pass through the URL so the page stays shareable.

No JS? Fill the form by hand. The geolocation button needs JavaScript.

§ Radio — SatNOGS DB

ModeDescriptionDownlinkUplink
Downlink 400.500 MHz

1 transmitter · refreshed weekly from db.satnogs.org